Location: Autingues
(50.8400°N, 1.9737°E)
Time: 20:48:01
(UTC+00:00)

Cosmos 1898 Rocket - Pass Details

Date: 15 May 2026
Orbit: 750 x 778 km, 74.0° (Epoch: 8 June)

Event Time Altitude Azimuth Distance (km) Brightness Sun altitude
Rises 22:55:09 0° 333° (NNW) 3,217 8.2 -19.1°
Reaches altitude 10° 22:57:32 10° 331° (NNW) 2,291 7.1 -19.2°
Maximum altitude 23:02:41 68° 250° (WSW) 821 3.5 -19.4°
Enters shadow 23:04:34 39° 181° (S) 1,137 3.9 -19.4°
